SWISSCUBE

Last updated on Sat Aug 15 2026 00:03:14 GMT+0000 (Coordinated Universal Time)

1 35932U 09051B 26226.45826902 .00000454 00000+0 99181-4 0 9995 2 35932 98.3971 135.3480 0007755 39.9472 320.2298 14.62576816897672
UTC large
Height (km)
Speed (km/s)
/
Latitude / Longitude
Inclination (degrees)
Orbital Period (minutes)
Azimuth
Elevation
Range (km)
Doppler Factor

Next 0 passes for location: London (51.5072 / 0.1276)

No passes found over London.
SWISSCUBE